Time,TemperatureF,DewpointF,PressureIn,WindDirection,WindDirectionDegrees,WindSpeedMPH,WindSpeedGustMPH,Humidity,HourlyPrecipIn,Conditions,Clouds,dailyrainin,SoftwareType,DateUTC
2013-07-09 01:22:00,54.0,51.0,29.95,South,172,3.0,8.0,89,0.00,,,-99.99,,2013-07-09 08:22:00,
2013-07-09 01:33:00,54.0,51.0,29.95,South,182,2.0,8.0,89,0.00,,,-99.99,,2013-07-09 08:33:00,
2013-07-09 01:43:00,54.0,51.0,29.95,South,188,3.0,6.0,89,0.00,,,-99.99,,2013-07-09 08:43:00,
2013-07-09 01:52:00,54.0,51.0,29.95,South,188,3.0,6.0,89,0.00,,,-99.99,,2013-07-09 08:52:00,
2013-07-09 02:02:00,54.0,51.0,29.95,South,174,0.0,6.0,90,0.00,,,-99.99,,2013-07-09 09:02:00,
2013-07-09 02:11:00,54.0,51.0,29.95,SSW,192,1.0,3.0,90,0.00,,,-99.99,,2013-07-09 09:11:00,
2013-07-09 02:22:00,54.0,51.0,29.95,SSW,198,3.0,7.0,90,0.00,,,-99.99,,2013-07-09 09:22:00,
2013-07-09 02:34:00,54.0,51.0,29.95,SSE,166,0.0,7.0,90,0.00,,,-99.99,,2013-07-09 09:34:00,
2013-07-09 02:42:00,54.0,51.0,29.95,SSW,203,1.0,5.0,90,0.00,,,-99.99,,2013-07-09 09:42:00,
2013-07-09 02:52:00,54.0,51.0,29.95,SE,130,1.0,4.0,90,0.00,,,-99.99,,2013-07-09 09:52:00,
2013-07-09 03:01:00,54.0,51.0,29.95,SE,128,0.0,5.0,90,0.00,,,-99.99,,2013-07-09 10:01:00,
2013-07-09 03:11:00,54.0,51.0,29.95,ESE,103,0.0,3.0,90,0.00,,,-99.99,,2013-07-09 10:11:00,
2013-07-09 03:22:00,54.0,51.0,29.94,SSW,212,0.0,4.0,91,0.00,,,-99.99,,2013-07-09 10:22:00,
2013-07-09 03:33:00,54.0,51.0,29.94,SSE,159,0.0,5.0,91,0.00,,,-99.99,,2013-07-09 10:33:00,
2013-07-09 03:42:00,54.0,51.0,29.94,SSW,212,0.0,4.0,91,0.00,,,-99.99,,2013-07-09 10:42:00,
2013-07-09 03:52:00,54.0,51.0,29.94,SSW,212,0.0,4.0,91,0.00,,,-99.99,,2013-07-09 10:52:00,
2013-07-09 04:01:00,54.0,51.0,29.93,South,189,2.0,5.0,91,0.00,,,-99.99,,2013-07-09 11:01:00,
2013-07-09 04:11:00,54.0,51.0,29.93,South,186,2.0,5.0,91,0.00,,,-99.99,,2013-07-09 11:11:00,
2013-07-09 04:22:00,54.0,51.0,29.93,SSE,157,0.0,2.0,91,0.00,,,-99.99,,2013-07-09 11:22:00,
2013-07-09 04:33:00,54.0,51.0,29.93,SSE,153,0.0,3.0,91,0.00,,,-99.99,,2013-07-09 11:33:00,
2013-07-09 04:42:00,54.0,51.0,29.93,SSE,153,0.0,2.0,91,0.00,,,-99.99,,2013-07-09 11:42:00,
2013-07-09 04:53:00,54.0,51.0,29.93,ESE,104,0.0,3.0,91,0.00,,,-99.99,,2013-07-09 11:53:00,
2013-07-09 05:01:00,54.0,51.0,29.93,ESE,104,0.0,3.0,91,0.00,,,-99.99,,2013-07-09 12:01:00,
2013-07-09 05:11:00,54.0,51.0,29.93,ESE,104,0.0,2.0,91,0.00,,,-99.99,,2013-07-09 12:11:00,
2013-07-09 05:22:00,54.0,52.0,29.94,South,175,1.0,4.0,92,0.00,,,-99.99,,2013-07-09 12:22:00,
2013-07-09 05:33:00,54.0,52.0,29.94,South,182,0.0,1.0,92,0.00,,,-99.99,,2013-07-09 12:33:00,
2013-07-09 05:43:00,54.0,52.0,29.95,South,182,0.0,3.0,92,0.00,,,-99.99,,2013-07-09 12:43:00,
2013-07-09 05:52:00,54.0,52.0,29.95,South,182,0.0,3.0,92,0.00,,,-99.99,,2013-07-09 12:52:00,
2013-07-09 06:11:00,53.0,51.0,29.95,South,182,0.0,3.0,92,0.00,,,-99.99,,2013-07-09 13:11:00,
2013-07-09 06:21:00,53.0,51.0,29.95,South,182,0.0,3.0,92,0.00,,,-99.99,,2013-07-09 13:21:00,
2013-07-09 06:33:00,53.0,51.0,29.96,South,182,0.0,2.0,92,0.00,,,-99.99,,2013-07-09 13:33:00,
2013-07-09 06:43:00,54.0,52.0,29.96,South,182,0.0,1.0,92,0.00,,,-99.99,,2013-07-09 13:43:00,
2013-07-09 06:53:00,54.0,52.0,29.96,South,182,0.0,1.0,93,0.00,,,-99.99,,2013-07-09 13:53:00,
2013-07-09 07:01:00,54.0,52.0,29.96,South,182,0.0,1.0,93,0.00,,,-99.99,,2013-07-09 14:01:00,
2013-07-09 07:11:00,54.0,52.0,29.97,South,182,0.0,0.0,93,0.00,,,-99.99,,2013-07-09 14:11:00,
2013-07-09 07:22:00,54.0,52.0,29.97,South,182,0.0,0.0,93,0.00,,,-99.99,,2013-07-09 14:22:00,
2013-07-09 07:34:00,54.0,52.0,29.97,South,182,0.0,1.0,93,0.00,,,-99.99,,2013-07-09 14:34:00,
2013-07-09 07:43:00,54.0,52.0,29.98,South,182,0.0,0.0,93,0.00,,,-99.99,,2013-07-09 14:43:00,
2013-07-09 07:53:00,54.0,52.0,29.98,South,182,0.0,0.0,93,0.00,,,-99.99,,2013-07-09 14:53:00,
2013-07-09 08:01:00,54.0,52.0,29.98,South,182,0.0,1.0,94,0.00,,,-99.99,,2013-07-09 15:01:00,
2013-07-09 08:11:00,54.0,52.0,29.98,SE,145,1.0,4.0,94,0.00,,,0.00,,2013-07-09 15:11:00,
2013-07-09 08:33:00,55.0,53.0,29.98,SE,138,0.0,1.0,94,0.00,,,0.00,,2013-07-09 15:33:00,
2013-07-09 08:43:00,55.0,53.0,29.99,SE,136,1.0,2.0,94,0.00,,,0.00,,2013-07-09 15:43:00,
2013-07-09 08:52:00,55.0,53.0,29.99,South,189,0.0,4.0,94,0.00,,,0.00,,2013-07-09 15:52:00,
2013-07-09 09:11:00,56.0,54.0,30.00,SE,142,0.0,2.0,94,0.00,,,0.00,,2013-07-09 16:11:00,
2013-07-09 09:22:00,56.0,54.0,30.00,SE,142,0.0,2.0,94,0.00,,,0.00,,2013-07-09 16:22:00,
2013-07-09 09:33:00,56.0,54.0,30.01,SW,225,3.0,5.0,94,0.00,,,0.00,,2013-07-09 16:33:00,
2013-07-09 09:52:00,57.0,55.0,30.01,SSW,207,0.0,4.0,94,0.00,,,0.00,,2013-07-09 16:52:00,
2013-07-09 10:02:00,57.0,55.0,30.01,SSW,207,0.0,4.0,94,0.00,,,0.00,,2013-07-09 17:02:00,
2013-07-09 10:11:00,57.0,55.0,30.01,SSW,207,0.0,4.0,94,0.00,,,0.00,,2013-07-09 17:11:00,
2013-07-09 10:22:00,59.0,57.0,30.01,WSW,245,2.0,7.0,94,0.00,,,0.00,,2013-07-09 17:22:00,
2013-07-09 10:45:00,61.0,59.0,30.01,South,191,0.0,7.0,92,0.00,,,0.00,,2013-07-09 17:45:00,
2013-07-09 10:53:00,61.0,57.0,30.01,WSW,241,2.0,7.0,88,0.00,,,0.00,,2013-07-09 17:53:00,
2013-07-09 11:01:00,61.0,56.0,30.01,WSW,237,4.0,7.0,85,0.00,,,0.00,,2013-07-09 18:01:00,
2013-07-09 11:11:00,61.0,56.0,30.01,WSW,237,4.0,7.0,85,0.00,,,0.00,,2013-07-09 18:11:00,
2013-07-09 11:22:00,61.0,55.0,30.01,WSW,245,4.0,7.0,81,0.00,,,0.00,,2013-07-09 18:22:00,
2013-07-09 11:42:00,61.0,54.0,30.01,WSW,241,5.0,7.0,79,0.00,,,0.00,,2013-07-09 18:42:00,
2013-07-09 11:52:00,60.0,54.0,30.01,WSW,250,3.0,7.0,81,0.00,,,0.00,,2013-07-09 18:52:00,
2013-07-09 12:01:00,61.0,55.0,30.01,West,264,4.0,8.0,80,0.00,,,0.00,,2013-07-09 19:01:00,
2013-07-09 12:11:00,61.0,54.0,30.01,West,264,3.0,8.0,79,0.00,,,0.00,,2013-07-09 19:11:00,
2013-07-09 12:42:00,61.0,54.0,30.01,SW,233,4.0,8.0,77,0.00,,,0.00,,2013-07-09 19:42:00,
2013-07-09 12:52:00,61.0,54.0,30.01,West,270,3.0,8.0,78,0.00,,,0.00,,2013-07-09 19:52:00,
2013-07-09 13:01:00,62.0,56.0,30.01,West,262,4.0,8.0,80,0.00,,,0.00,,2013-07-09 20:01:00,
2013-07-09 13:11:00,62.0,56.0,30.01,WSW,250,4.0,8.0,80,0.00,,,0.00,,2013-07-09 20:11:00,
2013-07-09 13:21:00,61.0,55.0,30.02,WNW,282,4.0,8.0,82,0.00,,,0.00,,2013-07-09 20:21:00,
2013-07-09 13:32:00,63.0,56.0,30.01,West,263,2.0,8.0,78,0.00,,,0.00,,2013-07-09 20:32:00,
2013-07-09 13:42:00,62.0,56.0,30.01,West,261,3.0,7.0,80,0.00,,,0.00,,2013-07-09 20:42:00,
2013-07-09 13:52:00,62.0,55.0,30.01,West,277,4.0,8.0,79,0.00,,,0.00,,2013-07-09 20:52:00,
2013-07-09 14:01:00,62.0,55.0,30.01,SSW,212,5.0,7.0,79,0.00,,,0.00,,2013-07-09 21:01:00,
2013-07-09 14:11:00,62.0,55.0,30.01,SW,228,4.0,8.0,77,0.00,,,0.00,,2013-07-09 21:11:00,
2013-07-09 14:22:00,62.0,55.0,30.01,SW,228,4.0,8.0,77,0.00,,,0.00,,2013-07-09 21:22:00,
2013-07-09 14:32:00,63.0,55.0,30.01,WSW,237,5.0,9.0,74,0.00,,,0.00,,2013-07-09 21:32:00,
2013-07-09 14:42:00,63.0,55.0,30.01,WSW,237,5.0,9.0,74,0.00,,,0.00,,2013-07-09 21:42:00,
2013-07-09 14:52:00,63.0,56.0,30.01,WSW,254,4.0,7.0,77,0.00,,,0.00,,2013-07-09 21:52:00,
2013-07-09 15:01:00,64.0,56.0,30.01,WSW,258,4.0,8.0,76,0.00,,,0.00,,2013-07-09 22:01:00,
2013-07-09 15:11:00,64.0,56.0,30.01,West,271,3.0,7.0,74,0.00,,,0.00,,2013-07-09 22:11:00,
2013-07-09 15:33:00,66.0,56.0,30.00,WSW,239,4.0,7.0,70,0.00,,,0.00,,2013-07-09 22:33:00,
2013-07-09 15:42:00,65.0,56.0,30.00,WSW,238,4.0,7.0,72,0.00,,,0.00,,2013-07-09 22:42:00,
2013-07-09 15:53:00,64.0,55.0,30.01,WSW,248,3.0,8.0,72,0.00,,,0.00,,2013-07-09 22:53:00,
2013-07-09 16:01:00,64.0,55.0,30.01,WSW,248,3.0,8.0,72,0.00,,,0.00,,2013-07-09 23:01:00,
2013-07-09 16:11:00,64.0,55.0,30.01,WSW,248,3.0,8.0,72,0.00,,,0.00,,2013-07-09 23:11:00,
2013-07-09 16:22:00,64.0,55.0,30.01,WSW,248,3.0,8.0,72,0.00,,,0.00,,2013-07-09 23:22:00,
2013-07-09 16:33:00,65.0,55.0,30.00,SW,234,4.0,7.0,71,0.00,,,0.00,,2013-07-09 23:33:00,
2013-07-09 16:53:00,64.0,56.0,29.99,West,279,2.0,5.0,76,0.00,,,0.00,,2013-07-09 23:53:00,
2013-07-09 17:01:00,64.0,56.0,29.99,West,279,2.0,5.0,76,0.00,,,0.00,,2013-07-10 00:01:00,
2013-07-09 17:11:00,64.0,56.0,29.99,West,276,3.0,5.0,74,0.00,,,0.00,,2013-07-10 00:11:00,
2013-07-09 17:22:00,64.0,56.0,30.00,WSW,245,2.0,6.0,74,0.00,,,0.00,,2013-07-10 00:22:00,
2013-07-09 17:33:00,63.0,54.0,30.00,WSW,249,2.0,6.0,72,0.00,,,0.00,,2013-07-10 00:33:00,
2013-07-09 17:52:00,63.0,55.0,29.99,West,266,3.0,7.0,74,0.00,,,0.00,,2013-07-10 00:52:00,
2013-07-09 18:11:00,62.0,54.0,29.99,West,277,3.0,7.0,76,0.00,,,0.00,,2013-07-10 01:11:00,
2013-07-09 18:32:00,60.0,53.0,29.99,West,274,2.0,6.0,79,0.00,,,0.00,,2013-07-10 01:32:00,
2013-07-09 18:43:00,60.0,53.0,29.98,WNW,285,2.0,4.0,78,0.00,,,0.00,,2013-07-10 01:43:00,
2013-07-09 18:52:00,60.0,53.0,29.98,WNW,284,1.0,4.0,79,0.00,,,0.00,,2013-07-10 01:52:00,
2013-07-09 19:01:00,61.0,54.0,29.98,WNW,300,3.0,5.0,78,0.00,,,0.00,,2013-07-10 02:01:00,
2013-07-09 19:11:00,61.0,53.0,29.98,WNW,282,2.0,6.0,75,0.00,,,0.00,,2013-07-10 02:11:00,
2013-07-09 19:22:00,61.0,53.0,29.98,WNW,282,2.0,6.0,75,0.00,,,0.00,,2013-07-10 02:22:00,
2013-07-09 19:33:00,60.0,52.0,29.98,WNW,303,2.0,5.0,76,0.00,,,0.00,,2013-07-10 02:33:00,
2013-07-09 19:42:00,60.0,52.0,29.98,WNW,303,2.0,5.0,76,0.00,,,0.00,,2013-07-10 02:42:00,
2013-07-09 19:53:00,59.0,52.0,29.98,NW,306,1.0,3.0,78,0.00,,,0.00,,2013-07-10 02:53:00,
2013-07-09 20:01:00,58.0,51.0,29.98,WNW,293,2.0,4.0,78,0.00,,,0.00,,2013-07-10 03:01:00,
2013-07-09 20:11:00,57.0,51.0,29.98,NW,316,1.0,4.0,79,0.00,,,0.00,,2013-07-10 03:11:00,
2013-07-09 20:22:00,56.0,50.0,29.98,NW,316,1.0,4.0,80,0.00,,,0.00,,2013-07-10 03:22:00,
2013-07-09 20:32:00,56.0,50.0,29.98,NW,316,1.0,4.0,80,0.00,,,0.00,,2013-07-10 03:32:00,
2013-07-09 20:43:00,55.0,49.0,29.98,NW,316,1.0,4.0,81,0.00,,,0.00,,2013-07-10 03:43:00,
2013-07-09 20:52:00,54.0,49.0,29.97,NW,316,1.0,3.0,83,0.00,,,0.00,,2013-07-10 03:52:00,
2013-07-09 21:01:00,53.0,48.0,29.98,NW,316,1.0,4.0,84,0.00,,,0.00,,2013-07-10 04:01:00,
2013-07-09 21:11:00,53.0,49.0,29.98,NW,317,1.0,4.0,85,0.00,,,0.00,,2013-07-10 04:11:00,
2013-07-09 21:22:00,53.0,49.0,29.98,NW,317,1.0,4.0,85,0.00,,,0.00,,2013-07-10 04:22:00,
2013-07-09 21:32:00,53.0,49.0,29.98,NW,317,0.0,3.0,87,0.00,,,0.00,,2013-07-10 04:32:00,
2013-07-09 21:42:00,53.0,49.0,29.98,NW,317,0.0,2.0,87,0.00,,,0.00,,2013-07-10 04:42:00,
2013-07-09 21:52:00,53.0,49.0,29.98,NW,317,0.0,2.0,87,0.00,,,0.00,,2013-07-10 04:52:00,
2013-07-09 22:02:00,53.0,50.0,29.99,NW,317,0.0,3.0,89,0.00,,,0.00,,2013-07-10 05:02:00,
2013-07-09 22:11:00,53.0,50.0,29.99,NW,317,0.0,3.0,89,0.00,,,0.00,,2013-07-10 05:11:00,
2013-07-09 22:22:00,52.0,49.0,29.99,NW,317,0.0,2.0,89,0.00,,,0.00,,2013-07-10 05:22:00,
2013-07-09 22:32:00,52.0,49.0,30.00,NW,317,0.0,2.0,90,0.00,,,0.00,,2013-07-10 05:32:00,
2013-07-09 22:42:00,52.0,49.0,30.00,NW,317,0.0,1.0,90,0.00,,,0.00,,2013-07-10 05:42:00,
2013-07-09 22:52:00,52.0,49.0,29.99,NW,317,0.0,1.0,91,0.00,,,0.00,,2013-07-10 05:52:00,
2013-07-09 23:01:00,52.0,49.0,29.99,NW,317,0.0,1.0,91,0.00,,,0.00,,2013-07-10 06:01:00,
2013-07-09 23:11:00,52.0,49.0,29.99,NW,317,0.0,2.0,91,0.00,,,0.00,,2013-07-10 06:11:00,
2013-07-09 23:21:00,52.0,49.0,29.99,NW,317,0.0,2.0,91,0.00,,,0.00,,2013-07-10 06:21:00,
2013-07-09 23:32:00,52.0,49.0,29.99,NW,317,0.0,2.0,91,0.00,,,0.00,,2013-07-10 06:32:00,
2013-07-09 23:42:00,52.0,49.0,29.99,NW,317,0.0,2.0,91,0.00,,,0.00,,2013-07-10 06:42:00,
2013-07-09 23:52:00,51.0,48.0,29.98,NW,317,1.0,2.0,91,0.00,,,0.00,,2013-07-10 06:52:00,